Vertical_Velocity
-2 -1 -1 -0 -2 -0 -1 -1 -3 -1 -2 1 -2 -2 -1 -2 0 -3 1 1 -2 -1 2 -1 2 -2 -6 -1 -2 -0 -1 1 0 -3 1 -2 -2 -1 1 2 2 4 1 0 1
-3 -2 -1 -0 -1 -1 -1 -1 -1 -2 -3 -1 1 -2 0 -1 1 -4 3 -2 -2 0 -0 -2 0 0 -5 -3 -1 -1 -2 -1 0 -1 1 0 -0 -5 -3 -0 1 2 6 3 -1
3 -5 -2 -1 -1 -0 -3 -3 -4 1 -1 -0 -2 -1 3 -2 0 -1 -1 -0 1 -1 -1 -4 -2 0 -4 -2 -4 -2 0 0 4 0 1 0 -1 -3 -1 4 1 1 4 2 4
-2 1 -3 1 -1 -0 -0 -3 -2 -4 -1 -2 -1 1 -0 3 -3 1 -5 -0 1 0 -0 -1 -1 -2 -2 -5 -5 -4 -2 -1 5 2 1 0 -5 -2 -2 -0 -2 -0 6 3 2
-1 -1 -0 1 3 1 0 -2 -3 -4 -3 -1 1 -0 -3 5 -3 11 1 -1 -2 -0 0 -0 1 -1 -5 -1 -4 -4 1 -2 5 0 -2 -2 -1 -2 5 -2 -2 2 3 3 3
-3 2 2 -2 1 -2 2 -1 -1 -5 -5 -1 1 -2 -1 16 -9 0 5 -2 1 -1 1 0 -2 1 0 2 -3 -2 -2 -1 2 2 0 -3 -3 -1 2 -1 0 1 1 1 -2
-1 -1 -0 -0 -2 1 -3 -0 0 -4 -8 3 1 -3 4 22 -2 6 2 3 -1 1 1 -1 -2 -1 2 -0 -3 -2 -2 -6 3 2 1 -2 -5 -2 2 -1 -6 3 3 0 -4
3 -3 2 2 -3 -1 1 6 -5 -7 -5 2 -3 -4 20 -8 -2 -0 -4 5 1 1 2 -4 0 -2 3 -0 -1 -1 -5 -4 -2 0 1 0 -1 -7 1 -1 -1 0 -3 -4 -1
2 -2 0 -0 -4 2 5 0 -2 -6 -7 -3 -5 -4 32 4 -9 6 2 7 -4 -2 4 -8 1 3 -2 5 -1 -0 0 -5 -2 -3 3 1 1 -6 2 -5 -4 -3 -2 4 1
3 -0 -2 -2 -0 -2 1 1 -1 -5 -2 -5 -4 -7 24 5 6 -3 3 3 -1 -3 -1 -2 -2 5 -3 5 5 -6 9 2 -3 -5 3 1 2 -7 -0 -3 -7 -1 1 3 2
-0 2 -0 -3 1 -1 -0 2 -11 -10 -0 0 4 -2 11 -0 1 -4 1 -3 0 -3 7 -5 -9 4 -2 3 -4 -3 2 5 -0 -0 1 3 2 -1 -1 -1 -6 -4 -4 -3 -0
-2 -2 2 -4 1 -1 4 2 -3 -18 0 5 -2 9 11 -11 -1 16 -0 2 -2 10 -0 -9 -7 10 2 0 -1 -2 -3 5 2 -1 -4 0 4 2 -1 1 -1 -5 -0 0 -4
-1 -1 3 -2 0 -2 -0 2 -3 -9 -23 26 5 0 14 -34 11 41 -12 5 3 -2 6 -6 23 -6 -6 -1 0 0 -3 6 3 -7 -1 -4 4 -4 3 3 -3 -4 -4 -1 1
-3 -1 0 -2 3 -3 0 -3 0 -6 -23 35 -11 -6 1 -1 -19 37 -19 2 -9 11 2 -19 13 -0 -6 0 -4 -1 3 -0 4 -5 -0 -7 1 -2 3 2 -2 -2 -4 -3 -1
-5 -5 3 1 2 -2 -2 -3 -5 11 -35 11 -5 4 9 13 -14 17 -9 -18 2 12 -7 19 18 4 -6 17 -6 9 -3 3 1 -1 -4 -3 -5 8 4 -1 -1 -5 -5 -4 -5
-2 -4 -1 -2 2 -1 0 -4 -0 2 -29 -3 -4 -7 -4 5 -2 -1 -5 -5 7 -4 -2 -3 8 -8 10 10 -5 7 -2 -4 0 0 -6 -1 -5 13 -0 -1 -3 -5 -0 -3 -4
-1 -1 -1 -3 -1 4 2 -8 1 -25 6 1 -5 4 6 -1 0 5 -2 -8 2 -3 -1 19 12 8 5 5 -6 -6 -2 1 -9 -7 6 -2 -9 14 -2 -2 1 1 -4 -1 -3
1 -5 -3 7 -3 3 3 -8 -18 1 5 -6 7 9 -2 6 1 -4 -2 3 -3 5 6 3 -3 14 25 5 8 -1 2 4 -6 3 10 -1 -12 10 1 -5 -2 -1 0 1 -2
-6 -1 3 11 -2 2 4 -21 -11 16 4 12 9 8 -4 -0 -0 7 -3 -1 9 4 -2 -1 -19 8 0 13 5 26 -18 19 -4 -3 -5 0 -2 3 1 1 -0 -2 2 4 3
2 -3 7 -5 2 1 -7 -14 -8 2 0 -2 10 -3 2 -2 -1 3 1 3 12 1 -11 4 -16 5 18 -2 -3 -4 14 -2 -8 -10 -9 -1 1 -2 4 -2 -2 5 0 -1 -0
-4 -9 23 -1 -1 -13 -21 -3 9 17 4 -4 4 1 16 -2 -8 -6 -5 18 6 -3 4 18 -2 17 5 -13 18 -1 -10 -4 1 -9 -4 0 -5 8 5 1 -2 -5 -6 -5 -2
-2 -8 17 7 -12 -1 -7 13 17 8 -1 -3 3 2 7 1 -3 -19 5 15 -5 5 12 -18 -8 7 18 5 -0 -2 -2 8 -1 2 -5 -6 -2 1 2 5 -3 -1 -4 -4 -5
-5 2 6 -2 -18 1 12 6 -0 4 5 3 3 6 1 -6 -6 -9 5 21 -4 2 1 -1 -11 -10 9 -9 -10 -14 7 6 2 0 -12 -8 5 9 4 7 0 2 1 -1 -3
-3 -3 -0 -5 4 2 0 6 -3 6 5 -2 7 -0 -3 -1 -7 -2 -3 4 5 4 4 -2 -1 -3 -4 35 8 -8 9 8 -1 -13 15 -6 -4 6 3 5 3 -4 0 0 2
-2 4 8 -1 6 4 2 11 5 2 8 1 9 2 1 -8 -4 1 4 -1 -5 4 7 -0 -8 -2 13 6 5 -1 10 -3 -18 9 -32 28 -10 3 2 8 4 0 2 1 -0
-3 6 6 10 5 1 -2 5 2 8 4 3 10 -9 -8 -12 4 7 -9 4 -7 7 23 21 -3 -10 -1 10 -4 -4 -0 -5 -10 1 -5 -3 -12 10 0 6 4 1 0 1 -1
2 3 1 5 2 -6 7 15 16 3 6 11 4 -10 1 9 -12 -5 -6 -2 0 -2 5 18 6 4 -5 10 13 -34 -9 8 13 -4 1 -8 17 4 -6 3 4 -2 1 2 2
Height
5801 5802 5803 5802 5803 5803 5802 5803 5803 5805 5806 5805 5805 5806 5806 5807 5806 5806 5806 5805 5803 5803 5800 5796 5797 5793 5789 5788 5784 5782 5778 5774 5770 5768 5767 5763 5761 5758 5755 5753 5751 5747 5745 5741 5738
5790 5792 5792 5794 5794 5794 5795 5794 5795 5796 5798 5799 5798 5798 5800 5802 5801 5800 5801 5799 5798 5797 5796 5793 5794 5790 5787 5783 5782 5779 5775 5770 5767 5765 5764 5760 5758 5754 5753 5751 5749 5746 5743 5739 5736
5780 5780 5781 5783 5784 5784 5785 5785 5786 5786 5789 5791 5792 5792 5792 5796 5797 5794 5794 5793 5793 5792 5792 5790 5788 5787 5784 5781 5778 5775 5771 5767 5765 5763 5762 5758 5755 5752 5752 5749 5748 5744 5741 5739 5735
5768 5767 5768 5770 5772 5773 5773 5775 5776 5777 5779 5781 5783 5785 5785 5787 5792 5787 5789 5788 5788 5787 5787 5785 5782 5783 5780 5778 5775 5772 5768 5765 5763 5760 5759 5755 5752 5751 5750 5746 5743 5740 5739 5735 5734
5755 5756 5755 5756 5758 5761 5762 5763 5766 5767 5769 5771 5774 5777 5778 5780 5783 5779 5784 5784 5782 5781 5781 5780 5778 5777 5776 5774 5772 5772 5767 5762 5758 5756 5755 5753 5750 5749 5749 5743 5740 5738 5735 5732 5729
5741 5744 5743 5744 5744 5747 5750 5752 5754 5756 5759 5763 5765 5768 5770 5773 5773 5771 5776 5777 5775 5777 5775 5775 5771 5772 5771 5770 5768 5766 5765 5758 5754 5752 5751 5751 5748 5745 5747 5742 5740 5736 5731 5729 5726
5732 5728 5732 5731 5731 5734 5738 5741 5743 5745 5748 5753 5756 5758 5761 5767 5762 5765 5767 5767 5769 5770 5770 5768 5766 5767 5766 5765 5764 5763 5760 5755 5752 5749 5748 5748 5746 5742 5743 5742 5738 5734 5730 5727 5722
5720 5720 5718 5720 5721 5722 5725 5728 5731 5734 5737 5742 5745 5748 5753 5755 5755 5758 5758 5762 5762 5760 5763 5760 5760 5761 5760 5761 5759 5758 5759 5754 5752 5745 5745 5745 5744 5739 5739 5740 5738 5733 5728 5724 5721
5706 5708 5707 5707 5710 5712 5713 5715 5717 5722 5726 5730 5736 5739 5745 5745 5746 5749 5750 5753 5753 5753 5754 5751 5754 5755 5755 5756 5756 5754 5754 5751 5747 5742 5742 5742 5741 5737 5737 5738 5736 5732 5727 5725 5722
5693 5695 5695 5696 5698 5700 5702 5703 5704 5708 5713 5718 5724 5729 5733 5736 5739 5740 5740 5742 5745 5745 5745 5747 5748 5749 5751 5751 5752 5748 5749 5750 5746 5741 5738 5739 5738 5736 5736 5736 5733 5731 5728 5724 5721
5683 5684 5685 5686 5688 5689 5693 5694 5694 5699 5703 5707 5712 5716 5719 5721 5727 5729 5730 5732 5735 5737 5739 5741 5739 5747 5746 5744 5743 5743 5745 5745 5745 5739 5734 5735 5735 5735 5734 5734 5733 5730 5729 5726 5721
5672 5674 5674 5675 5677 5679 5681 5683 5685 5688 5693 5697 5701 5706 5710 5707 5714 5719 5720 5723 5725 5729 5730 5731 5735 5743 5738 5736 5738 5738 5739 5741 5741 5735 5731 5730 5731 5733 5732 5732 5731 5728 5726 5725 5723
5659 5661 5662 5664 5666 5668 5670 5672 5675 5678 5680 5693 5690 5694 5699 5697 5702 5711 5704 5711 5715 5718 5721 5723 5732 5731 5729 5730 5731 5734 5735 5736 5736 5731 5729 5726 5726 5728 5731 5730 5728 5727 5725 5725 5724
5644 5646 5649 5652 5656 5656 5659 5661 5664 5668 5671 5679 5682 5683 5685 5688 5691 5696 5696 5701 5705 5710 5712 5714 5721 5723 5723 5723 5727 5729 5731 5729 5729 5728 5725 5723 5723 5725 5728 5727 5726 5725 5723 5722 5722
5629 5631 5635 5637 5641 5644 5646 5650 5653 5659 5661 5667 5668 5673 5672 5675 5680 5682 5686 5689 5696 5700 5704 5709 5713 5715 5716 5722 5718 5726 5722 5721 5722 5723 5719 5719 5717 5722 5725 5724 5725 5724 5721 5720 5720
5609 5613 5618 5622 5625 5629 5632 5636 5641 5647 5651 5654 5652 5656 5661 5662 5665 5668 5675 5680 5685 5687 5691 5697 5701 5703 5706 5713 5709 5716 5715 5714 5714 5716 5713 5715 5713 5718 5720 5721 5722 5722 5721 5719 5718
5590 5594 5600 5605 5608 5613 5616 5621 5627 5631 5646 5645 5640 5641 5646 5650 5655 5658 5662 5669 5672 5677 5681 5687 5691 5694 5698 5700 5704 5706 5711 5709 5707 5709 5712 5709 5708 5714 5714 5717 5720 5720 5718 5718 5717
5571 5575 5581 5586 5589 5596 5599 5603 5611 5624 5631 5628 5629 5627 5629 5636 5645 5650 5655 5661 5664 5666 5670 5673 5679 5685 5691 5694 5700 5703 5704 5702 5702 5706 5709 5702 5701 5709 5709 5711 5716 5717 5717 5716 5716
5550 5558 5566 5566 5569 5577 5581 5583 5601 5610 5613 5614 5615 5619 5618 5624 5632 5639 5645 5651 5655 5655 5658 5662 5668 5676 5680 5686 5691 5695 5691 5699 5698 5697 5698 5696 5699 5703 5705 5708 5711 5713 5714 5715 5714
5534 5539 5549 5545 5552 5558 5562 5573 5584 5590 5596 5597 5602 5606 5609 5613 5617 5624 5633 5639 5639 5643 5645 5650 5653 5662 5670 5674 5679 5680 5689 5688 5688 5687 5689 5690 5693 5697 5701 5702 5705 5709 5710 5710 5711
5518 5521 5534 5529 5535 5540 5550 5562 5568 5574 5577 5582 5585 5591 5598 5600 5604 5610 5620 5626 5627 5633 5638 5638 5641 5650 5655 5661 5666 5672 5674 5676 5680 5680 5682 5684 5687 5695 5697 5698 5698 5702 5704 5705 5706
5506 5508 5518 5517 5521 5530 5539 5547 5555 5559 5563 5567 5572 5576 5581 5585 5591 5596 5605 5608 5614 5622 5625 5625 5635 5640 5646 5652 5656 5662 5667 5671 5672 5673 5676 5678 5683 5688 5690 5694 5694 5694 5696 5697 5699
5493 5496 5501 5503 5509 5517 5526 5533 5539 5546 5552 5556 5561 5564 5566 5571 5578 5582 5590 5597 5603 5610 5614 5619 5625 5631 5639 5643 5642 5646 5652 5658 5663 5667 5667 5671 5677 5684 5683 5688 5690 5690 5690 5691 5692
5484 5484 5490 5493 5501 5508 5516 5524 5531 5538 5545 5548 5554 5556 5559 5565 5568 5577 5582 5587 5596 5602 5607 5610 5615 5622 5630 5637 5637 5639 5645 5650 5655 5658 5660 5663 5669 5676 5678 5681 5685 5683 5686 5686 5686
5474 5477 5483 5486 5495 5504 5511 5520 5527 5534 5540 5543 5547 5551 5555 5559 5562 5564 5569 5576 5585 5593 5597 5605 5606 5610 5617 5625 5627 5634 5639 5643 5648 5650 5654 5660 5664 5670 5673 5673 5679 5678 5680 5680 5680
5469 5475 5480 5487 5493 5500 5506 5515 5523 5529 5534 5537 5542 5544 5548 5552 5554 5559 5556 5561 5573 5582 5586 5592 5597 5601 5606 5613 5617 5621 5627 5633 5638 5642 5645 5650 5654 5662 5666 5666 5668 5671 5673 5673 5675
5467 5471 5478 5484 5490 5495 5504 5513 5519 5523 5529 5533 5536 5538 5541 5545 5548 5548 5550 5554 5561 5568 5574 5583 5590 5593 5597 5605 5607 5610 5620 5625 5630 5633 5637 5641 5650 5654 5656 5658 5661 5664 5666 5668 5669